Find Microscope

NORAD ID: 41457 Int'l Des: 2016-025 Owner: CNES Country: F operational
LEOCIRCULARRETROGRADESSO

当前视图

正在加载3D地球...

关于 Microscope

正在加载描述...

即将过境

Passes for default location (London). Set your location on the main map for personalized predictions.

高度历史

Loading altitude history...

两行轨道根数

1 41457U 16025B 26151.45233782 .00001195 00000-0 26125-3 0 9999
2 41457 98.2441 164.2139 0001026 99.0110 261.1205 14.59558111536287
Epoch: May 31, 2026 • Age: 10 hours

当前状态

高度 715.4 km
速度 7.50 km/s
星下点 -51.91°S, 21.46°W
发射日期 Apr 25, 2016
运行时间 10 years
类型 other

技术详情

分类 Payload
质量 303.00 kg
干质量 303.00 kg
总质量 303.00 kg
长度 1.30 m
直径 0.90 m
跨度 6.00 m
形状 Box + 2 panels+ 2 booms
制造商 ONERA/CNES
平台类型 Myriade
阶段状态 In Orbit
所有者/国家 CNES/F

Most Searched